Weather in Comillas

Spain     43°23′04″N   4°17′32″W
temp.,
°C
wind,
m/s
gust,
m/s
humid.,
%
clouds,
%
prec.,
mm/h
press.,
hPa
HPBL,
m
20 april, tue
tue2023:00+13nnw116919 0.0 101712
02:00+13ssw116798 0.0 101664
05:00+13w236889 0.0 1016173
08:00+13w4477100 0.0 1016355
11:00+13w337798 0.0 1016360
14:00+12nne118566 1.1 1015187
17:00+12n228395 0.0 1015305
20:00+12e11826 0.0 1014248
21 april, wed
wed2123:00+12e118395 0.0 1015168
02:00+12ese118397 0.0 1015171
05:00+12e228295 0.0 1013214
08:00+12e338215 0.0 1013253
11:00+12ene337815 0.0 1013245
14:00+13ene7776100 0.0 1012311
17:00+13ene9972100 0.0 1010401
20:00+13ene91277100 0.0 1009297
22 april, thu
thu2223:00+13e81081100 0.0 1010298
02:00+13ese5682100 0.0 1009208
05:00+13wsw3379100 0.0 1009149
08:00+13w4482100 0.0 1010190
11:00+13wnw3384100 0.0 1012200
14:00+14ne118053 0.0 101397
17:00+14ene89868 0.0 1013189
20:00+14ene1013855 0.0 1013224
23 april, fri
fri2323:00+14ese78845 0.0 101598
02:00+14se567995 0.0 101494
05:00+13ese687999 0.0 1013161
08:00+13se557899 0.0 1013134
11:00+15e557399 0.0 1013103
14:00+15ne91079100 0.0 1012168
17:00+16ene5677100 0.0 1011108
20:00+16sse0179100 0.0 101117
24 april, sat
sat2423:00+15wsw4484100 0.0 101239
02:00+15ese2280100 0.0 101213
05:00+16sse6772100 0.0 101165
08:00+15ssw447683 0.0 101236
11:00+15nnw227738 0.0 101350
14:00+15nw22845 0.0 101373
17:00+15wnw2280100 0.0 101258
20:00+16wsw3379100 0.0 101254